Location: Newark
(31.5350°N, 35.0986°E)
Time: 18:25:23
(UTC+00:00)

Courier 1B - All Passes

Search period start: 22 September 2019 00:00
Search period end: 02 October 2019 00:00
Orbit: 962 x 1209 km, 28.3° (Epoch: 21 September)

Date Brightness Start Highest point End Pass type
(mag) Time Alt. Az. Time Alt. Az. Time Alt. Az.
22 Sep - 01:03:16 10° SSW 01:08:13 23° SSE 01:13:18 10° ESE visible
22 Sep - 02:55:16 10° WSW 03:01:42 51° SSE 03:08:32 10° E visible
22 Sep - 04:48:46 10° W 04:55:39 70° S 05:02:59 10° E daylight
22 Sep - 06:42:45 10° W 06:49:45 55° SSW 06:57:10 10° ESE daylight
22 Sep - 08:37:28 10° W 08:43:36 28° SSW 08:49:58 10° SSE daylight
23 Sep - 00:10:45 10° S 00:14:40 17° SSE 00:18:38 10° ESE visible
23 Sep - 02:01:52 10° SW 02:08:01 43° SSE 02:14:29 10° E visible
23 Sep - 03:55:08 10° WSW 04:01:50 67° S 04:08:59 10° E daylight
23 Sep - 05:48:59 10° W 05:55:54 61° S 06:03:16 10° ESE daylight
23 Sep - 07:43:21 10° W 07:49:49 34° SSW 07:56:35 10° SE daylight
23 Sep - 09:40:37 10° SW 09:43:28 12° SSW 09:46:22 10° S daylight
23 Sep - 23:19:08 10° SSE 23:21:07 11° SSE 23:23:07 10° SE visible
24 Sep - 01:08:35 10° SW 01:14:23 35° SSE 01:20:24 10° E visible
24 Sep - 03:01:32 10° WSW 03:08:04 63° S 03:15:00 10° E visible
24 Sep - 04:55:17 10° W 05:02:05 66° S 05:09:20 10° ESE daylight
24 Sep - 06:49:24 10° W 06:56:02 41° SSW 07:03:01 10° SE daylight
24 Sep - 08:45:13 10° WSW 08:49:44 17° SSW 08:54:21 10° S daylight
25 Sep - 00:15:28 10° SSW 00:20:48 27° SSE 00:26:14 10° E visible
25 Sep - 02:07:58 10° WSW 02:14:20 56° SSE 02:21:02 10° E visible
25 Sep - 04:01:36 10° W 04:08:16 68° S 04:15:22 10° E daylight
25 Sep - 05:55:35 10° W 06:02:14 48° SSW 06:09:19 10° SE daylight
25 Sep - 07:50:37 10° WSW 07:55:59 22° SSW 08:01:33 10° SSE daylight
25 Sep - 23:22:35 10° SSW 23:27:15 21° SSE 23:31:55 10° ESE visible
26 Sep - 01:14:28 10° WSW 01:20:40 48° SSE 01:27:05 10° E visible
26 Sep - 03:07:57 10° W 03:14:30 68° S 03:21:26 10° E visible
26 Sep - 05:01:50 10° W 05:08:28 55° SSW 05:15:31 10° ESE daylight
26 Sep - 06:56:23 10° W 07:02:14 28° SSW 07:08:23 10° SSE daylight
26 Sep - 22:30:06 10° S 22:33:41 15° SSE 22:37:16 10° ESE night (unlit)
27 Sep - 00:21:04 10° SW 00:27:03 40° SSE 00:33:08 10° E visible
27 Sep - 02:14:18 10° WSW 02:20:45 66° S 02:27:30 10° E visible
27 Sep - 04:08:08 10° W 04:14:42 61° S 04:21:40 10° ESE daylight
27 Sep - 06:02:23 10° W 06:08:30 34° SSW 06:14:59 10° SE daylight
27 Sep - 07:59:21 10° SW 08:02:07 12° SSW 08:04:56 10° S daylight
27 Sep - 21:38:49 10° SSE 21:40:08 11° SSE 21:41:26 10° SE night (unlit)
27 Sep - 23:27:46 10° SW 23:33:26 33° SSE 23:39:09 10° E visible
28 Sep - 01:20:42 10° WSW 01:27:03 61° S 01:33:37 10° E visible
28 Sep - 03:14:27 10° W 03:20:57 65° S 03:27:47 10° ESE daylight
28 Sep - 05:08:31 10° W 05:14:47 41° SSW 05:21:25 10° SE daylight
28 Sep - 07:04:08 10° WSW 07:08:24 17° SSW 07:12:49 10° S daylight
28 Sep - 22:34:37 10° SSW 22:39:52 26° SSE 22:45:04 10° ESE night (unlit)
29 Sep - 00:27:07 10° WSW 00:33:23 54° SSE 00:39:45 10° E visible
29 Sep - 02:20:47 10° W 02:27:13 68° S 02:33:56 10° E visible
29 Sep - 04:14:44 10° W 04:21:05 48° SSW 04:27:45 10° ESE daylight
29 Sep - 06:09:39 10° WSW 06:14:43 22° SSW 06:20:00 10° SSE daylight
29 Sep - 21:41:41 10° SSW 21:46:17 20° SSE 21:50:49 10° ESE night (unlit)
29 Sep - 23:33:34 10° SW 23:39:45 47° SSE 23:45:55 10° E visible
30 Sep - 01:27:06 10° W 01:33:30 67° S 01:40:05 10° E visible
30 Sep - 03:21:01 10° W 03:27:22 55° SSW 03:34:02 10° ESE daylight
30 Sep - 05:15:30 10° W 05:21:02 27° SSW 05:26:51 10° SSE daylight
30 Sep - 20:49:09 10° S 20:52:42 15° SSE 20:56:11 10° ESE night (unlit)
30 Sep - 22:40:06 10° SW 22:46:07 39° SSE 22:52:03 10° E night (unlit)
01 Oct - 00:33:25 10° WSW 00:39:49 65° S 00:46:17 10° E visible
01 Oct - 02:27:18 10° W 02:33:41 61° S 02:40:16 10° ESE visible
01 Oct - 04:21:32 10° W 04:27:23 34° SSW 04:33:29 10° SE daylight
01 Oct - 06:18:24 10° SW 06:20:53 12° SSW 06:23:24 10° S daylight
01 Oct - 19:57:55 10° SSE 19:59:06 10° SSE 20:00:16 10° SE night (unlit)
01 Oct - 21:46:43 10° SW 21:52:31 32° SSE 21:58:09 10° E night (unlit)
01 Oct - 23:39:44 10° WSW 23:46:08 60° S 23:52:29 10° E visible
